QPF
0.02 0.01 0.01 0.01 0.01 0.01 0.01 0.01 0.01 0.01 0.02 0.02 0.04 0.04 0.05 0.05 0.05 0.06 0.07 0.07 0.07 0.08 0.09 0.08 0.06 0.07 0.07 0.06 0.05 0.04 0.04 0.03 0.02 0.01 0.01 0.01 0.02 0.02 0.03 0.03 0.04 0.04 0.04
0.01 0.01 0.01 0.01 0.01 0.01 0.01 0.03 0.02 0.02 0.01 0.02 0.02 0.03 0.04 0.04 0.05 0.05 0.05 0.04 0.04 0.04 0.06 0.07 0.06 0.07 0.06 0.05 0.04 0.04 0.04 0.04 0.03 0.02 0.02 0.03 0.03 0.03 0.03 0.04 0.04 0.03 0.03
0.01 0.01 0.01 0.02 0.02 0.02 0.03 0.04 0.03 0.03 0.02 0.02 0.02 0.02 0.03 0.04 0.04 0.04 0.04 0.04 0.04 0.04 0.05 0.05 0.05 0.06 0.07 0.07 0.06 0.05 0.05 0.05 0.04 0.03 0.03 0.04 0.04 0.04 0.05 0.04 0.03 0.03 0.03
0.02 0.01 0.01 0.01 0.02 0.02 0.03 0.04 0.05 0.04 0.03 0.02 0.03 0.03 0.04 0.04 0.05 0.05 0.05 0.05 0.04 0.03 0.03 0.04 0.06 0.08 0.10 0.09 0.09 0.08 0.08 0.08 0.08 0.07 0.06 0.06 0.06 0.06 0.05 0.05 0.05 0.04 0.04
0.02 0.01 0.01 0.01 0.01 0.01 0.02 0.03 0.04 0.04 0.04 0.03 0.04 0.04 0.05 0.05 0.04 0.04 0.04 0.04 0.04 0.03 0.03 0.05 0.06 0.09 0.11 0.11 0.11 0.09 0.08 0.08 0.08 0.08 0.08 0.07 0.07 0.06 0.05 0.05 0.06 0.06 0.07
0.02 0.02 0.02 0.01 0.02 0.02 0.03 0.03 0.04 0.05 0.06 0.06 0.06 0.05 0.05 0.04 0.05 0.06 0.06 0.05 0.04 0.04 0.04 0.04 0.04 0.04 0.06 0.07 0.07 0.06 0.05 0.04 0.04 0.04 0.05 0.04 0.03 0.02 0.03 0.03 0.04 0.04 0.05
0.04 0.04 0.03 0.04 0.05 0.04 0.04 0.03 0.04 0.04 0.05 0.06 0.05 0.04 0.04 0.04 0.05 0.06 0.07 0.06 0.05 0.05 0.04 0.03 0.02 0.02 0.02 0.03 0.03 0.02 0.02 0.02 0.02 0.02 0.02 0.01 0.01 0.01 0.01 0.02 0.02 0.02 0.02
0.06 0.05 0.06 0.08 0.08 0.05 0.05 0.06 0.05 0.03 0.04 0.05 0.05 0.04 0.03 0.04 0.05 0.04 0.06 0.07 0.07 0.06 0.04 0.02 0.02 0.02 0.03 0.03 0.02 0.01 0.01 0.01 0.01 0.01 0.01 0.01 0.01 0.01 0.02 0.02 0.02 0.02 0.03
0.07 0.07 0.08 0.11 0.09 0.07 0.06 0.05 0.04 0.03 0.02 0.02 0.02 0.02 0.02 0.03 0.05 0.07 0.09 0.09 0.06 0.04 0.03 0.03 0.03 0.03 0.03 0.02 0.01 0.00 0.00 0.01 0.02 0.02 0.01 0.01 0.02 0.02 0.02 0.03 0.04 0.04 0.04
0.10 0.08 0.08 0.07 0.07 0.06 0.05 0.04 0.03 0.03 0.02 0.01 0.01 0.02 0.03 0.04 0.05 0.06 0.05 0.03 0.02 0.02 0.02 0.01 0.01 0.01 0.01 0.01 0.00 0.01 0.01 0.01 0.02 0.02 0.02 0.02 0.02 0.02 0.03 0.03 0.04 0.04 0.04
0.14 0.12 0.10 0.07 0.05 0.05 0.05 0.05 0.03 0.02 0.02 0.02 0.01 0.02 0.02 0.02 0.02 0.02 0.01 0.00 0.01 0.01 0.01 0.01 0.01 0.01 0.01 0.01 0.01 0.01 0.02 0.02 0.02 0.02 0.02 0.02 0.02 0.02 0.03 0.04 0.04 0.04 0.04
0.17 0.12 0.09 0.07 0.05 0.04 0.05 0.07 0.05 0.03 0.02 0.01 0.01 0.01 0.01 0.01 0.01 0.01 0.02 0.02 0.02 0.02 0.02 0.02 0.02 0.02 0.02 0.02 0.02 0.02 0.02 0.02 0.02 0.01 0.01 0.01 0.01 0.01 0.02 0.03 0.04 0.05 0.05
0.10 0.08 0.05 0.04 0.04 0.05 0.05 0.05 0.04 0.02 0.02 0.01 0.01 0.01 0.01 0.00 0.01 0.01 0.01 0.02 0.01 0.01 0.01 0.01 0.01 0.01 0.01 0.01 0.01 0.01 0.01 0.00 0.00 0.01 0.01 0.01 0.02 0.03 0.04 0.05 0.06 0.06 0.05
0.07 0.05 0.03 0.03 0.03 0.02 0.02 0.02 0.03 0.03 0.02 0.01 0.01 0.01 0.01 0.00 0.01 0.01 0.01 0.01 0.01 0.01 0.02 0.02 0.02 0.01 0.01 0.01 0.01 0.01 0.00 0.00 0.00 0.00 0.01 0.02 0.03 0.04 0.05 0.05 0.04 0.04 0.03
0.05 0.04 0.04 0.05 0.05 0.05 0.04 0.05 0.05 0.05 0.04 0.03 0.02 0.01 0.01 0.00 0.01 0.01 0.01 0.01 0.01 0.01 0.01 0.01 0.01 0.01 0.02 0.02 0.02 0.01 0.01 0.01 0.01 0.01 0.01 0.01 0.02 0.03 0.03 0.03 0.02 0.02 0.01
0.03 0.03 0.05 0.06 0.05 0.05 0.04 0.03 0.03 0.03 0.02 0.01 0.01 0.01 0.01 0.01 0.01 0.01 0.01 0.01 0.00 0.01 0.00 0.01 0.01 0.01 0.00 0.00 0.00 0.00 0.00 0.00 0.00 0.00 0.00 0.01 0.01 0.01 0.01 0.01 0.01 0.01 0.01
0.05 0.05 0.07 0.07 0.06 0.05 0.05 0.04 0.04 0.03 0.03 0.02 0.01 0.01 0.01 0.01 0.01 0.01 0.01 0.01 0.01 0.01 0.00 0.00 0.00 0.00 0.00 0.00 0.00 0.00 0.00 0.00 0.00 0.00 0.00 0.00 0.00 0.00 0.00 0.00 0.00 0.00 0.01
0.07 0.07 0.07 0.07 0.06 0.04 0.04 0.03 0.03 0.02 0.02 0.01 0.01 0.00 0.00 0.00 0.00 0.00 0.01 0.01 0.00 0.00 0.01 0.01 0.01 0.00 0.00 0.00 0.00 0.00 0.00 0.00 0.00 0.00 0.00 0.00 0.00 0.00 0.00 0.00 0.00 0.00 0.00
0.07 0.07 0.07 0.07 0.06 0.05 0.04 0.04 0.04 0.03 0.03 0.02 0.01 0.00 0.00 0.00 0.00 0.00 0.00 0.01 0.00 0.00 0.01 0.01 0.01 0.00 0.00 0.00 0.00 0.00 0.00 0.00 0.00 0.00 0.00 0.00 0.00 0.00 0.00 0.00 0.00 0.00 0.00
0.05 0.07 0.07 0.06 0.05 0.04 0.03 0.03 0.03 0.03 0.02 0.01 0.01 0.01 0.01 0.00 0.00 0.00 0.01 0.01 0.02 0.01 0.00 0.00 0.00 0.00 0.00 0.00 0.00 0.00 0.00 0.00 0.00 0.00 0.00 0.00 0.00 0.00 0.00 0.00 0.00 0.00 0.00
0.03 0.04 0.04 0.04 0.03 0.02 0.02 0.02 0.02 0.01 0.01 0.01 0.01 0.01 0.01 0.01 0.01 0.00 0.00 0.00 0.00 0.00 0.00 0.00 0.00 0.00 0.00 0.00 0.00 0.00 0.00 0.00 0.00 0.00 0.00 0.00 0.00 0.00 0.00 0.00 0.00 0.00 0.00
0.03 0.03 0.04 0.03 0.03 0.03 0.03 0.02 0.02 0.01 0.01 0.01 0.01 0.00 0.01 0.01 0.01 0.01 0.01 0.00 0.00 0.00 0.00 0.00 0.00 0.00 0.00 0.00 0.00 0.00 0.00 0.00 0.00 0.00 0.00 0.00 0.00 0.00 0.00 0.00 0.00 0.00 0.00
0.05 0.04 0.04 0.03 0.02 0.03 0.02 0.02 0.01 0.01 0.01 0.01 0.01 0.01 0.01 0.01 0.01 0.01 0.01 0.00 0.00 0.00 0.00 0.00 0.00 0.00 0.00 0.00 0.00 0.00 0.00 0.00 0.00 0.00 0.00 0.00 0.00 0.00 0.00 0.00 0.00 0.00 0.00
0.02 0.03 0.03 0.03 0.02 0.02 0.02 0.02 0.01 0.01 0.01 0.01 0.01 0.01 0.01 0.01 0.01 0.01 0.01 0.01 0.01 0.00 0.00 0.00 0.00 0.00 0.00 0.00 0.00 0.00 0.00 0.00 0.00 0.00 0.00 0.00 0.00 0.00 0.00 0.00 0.00 0.00 0.00
0.03 0.04 0.05 0.04 0.04 0.03 0.03 0.03 0.02 0.01 0.01 0.01 0.01 0.01 0.02 0.01 0.01 0.01 0.01 0.01 0.01 0.00 0.00 0.00 0.00 0.00 0.00 0.00 0.00 0.00 0.00 0.00 0.00 0.00 0.00 0.00 0.00 0.00 0.00 0.00 0.00 0.00 0.00
0.03 0.03 0.03 0.03 0.03 0.03 0.03 0.03 0.02 0.02 0.01 0.01 0.01 0.01 0.01 0.01 0.01 0.01 0.01 0.01 0.00 0.01 0.00 0.00 0.00 0.00 0.00 0.00 0.00 0.00 0.00 0.00 0.00 0.00 0.00 0.00 0.00 0.00 0.00 0.00 0.00 0.00 0.00
MSLP
1016.01 1016.30 1016.58 1016.82 1016.99 1017.08 1017.12 1017.15 1017.20 1017.32 1017.52 1017.80 1018.15 1018.53 1018.90 1019.24 1019.53 1019.77 1019.97 1020.15 1020.33 1020.53 1020.74 1020.96 1021.17 1021.34 1021.48 1021.57 1021.63 1021.68 1021.77 1021.92 1022.15 1022.46 1022.85 1023.27 1023.69 1024.06 1024.34 1024.51 1024.58 1024.57 1024.51
1016.28 1016.59 1016.89 1017.13 1017.30 1017.39 1017.43 1017.45 1017.49 1017.59 1017.76 1018.02 1018.34 1018.70 1019.07 1019.42 1019.74 1020.02 1020.26 1020.49 1020.70 1020.91 1021.11 1021.30 1021.45 1021.56 1021.62 1021.64 1021.63 1021.65 1021.72 1021.87 1022.13 1022.49 1022.95 1023.45 1023.95 1024.40 1024.77 1025.02 1025.16 1025.20 1025.18
1016.56 1016.89 1017.21 1017.46 1017.64 1017.74 1017.79 1017.81 1017.85 1017.94 1018.10 1018.33 1018.63 1018.96 1019.32 1019.67 1020.00 1020.31 1020.59 1020.85 1021.10 1021.34 1021.55 1021.72 1021.84 1021.90 1021.89 1021.85 1021.78 1021.75 1021.78 1021.91 1022.17 1022.55 1023.04 1023.58 1024.14 1024.66 1025.08 1025.39 1025.59 1025.68 1025.70
1016.81 1017.17 1017.50 1017.77 1017.96 1018.08 1018.15 1018.19 1018.25 1018.34 1018.50 1018.71 1018.99 1019.30 1019.64 1019.98 1020.31 1020.63 1020.94 1021.24 1021.53 1021.80 1022.02 1022.20 1022.31 1022.34 1022.31 1022.21 1022.10 1022.02 1022.00 1022.10 1022.33 1022.70 1023.18 1023.73 1024.30 1024.84 1025.31 1025.66 1025.90 1026.04 1026.09
1016.99 1017.37 1017.72 1018.00 1018.22 1018.37 1018.47 1018.55 1018.64 1018.77 1018.93 1019.15 1019.42 1019.71 1020.03 1020.35 1020.67 1021.00 1021.33 1021.65 1021.97 1022.27 1022.53 1022.73 1022.85 1022.88 1022.83 1022.71 1022.57 1022.45 1022.39 1022.44 1022.63 1022.95 1023.39 1023.92 1024.48 1025.01 1025.48 1025.86 1026.12 1026.28 1026.37
1017.10 1017.50 1017.86 1018.17 1018.41 1018.60 1018.76 1018.89 1019.04 1019.20 1019.41 1019.64 1019.91 1020.19 1020.49 1020.79 1021.10 1021.41 1021.74 1022.07 1022.41 1022.73 1023.02 1023.25 1023.40 1023.45 1023.41 1023.30 1023.14 1023.00 1022.91 1022.92 1023.05 1023.31 1023.70 1024.18 1024.69 1025.20 1025.65 1026.02 1026.29 1026.46 1026.56
1017.16 1017.57 1017.94 1018.27 1018.55 1018.79 1019.00 1019.21 1019.42 1019.65 1019.91 1020.18 1020.46 1020.74 1021.01 1021.29 1021.57 1021.86 1022.16 1022.49 1022.83 1023.17 1023.48 1023.74 1023.92 1024.00 1023.99 1023.89 1023.75 1023.60 1023.49 1023.46 1023.55 1023.76 1024.08 1024.50 1024.96 1025.41 1025.83 1026.17 1026.43 1026.60 1026.70
1017.19 1017.61 1018.00 1018.35 1018.67 1018.96 1019.23 1019.51 1019.80 1020.11 1020.42 1020.73 1021.04 1021.32 1021.58 1021.83 1022.07 1022.32 1022.59 1022.90 1023.22 1023.55 1023.87 1024.15 1024.35 1024.47 1024.49 1024.43 1024.31 1024.17 1024.07 1024.02 1024.08 1024.24 1024.51 1024.86 1025.26 1025.66 1026.03 1026.34 1026.57 1026.73 1026.82
1017.23 1017.66 1018.06 1018.43 1018.78 1019.12 1019.45 1019.81 1020.17 1020.55 1020.92 1021.28 1021.60 1021.89 1022.14 1022.36 1022.57 1022.78 1023.01 1023.27 1023.57 1023.88 1024.19 1024.46 1024.68 1024.82 1024.88 1024.86 1024.77 1024.67 1024.58 1024.54 1024.58 1024.71 1024.93 1025.23 1025.58 1025.92 1026.25 1026.52 1026.72 1026.85 1026.93
1017.30 1017.73 1018.14 1018.52 1018.89 1019.26 1019.65 1020.06 1020.49 1020.93 1021.36 1021.75 1022.11 1022.40 1022.65 1022.85 1023.03 1023.20 1023.39 1023.61 1023.86 1024.14 1024.43 1024.70 1024.92 1025.08 1025.16 1025.17 1025.13 1025.05 1024.99 1024.97 1025.01 1025.13 1025.32 1025.58 1025.88 1026.18 1026.46 1026.69 1026.86 1026.97 1027.02
1017.38 1017.81 1018.21 1018.59 1018.98 1019.37 1019.80 1020.25 1020.72 1021.20 1021.67 1022.10 1022.48 1022.79 1023.04 1023.24 1023.40 1023.55 1023.71 1023.90 1024.12 1024.36 1024.62 1024.87 1025.08 1025.25 1025.35 1025.38 1025.37 1025.34 1025.30 1025.30 1025.35 1025.47 1025.64 1025.87 1026.13 1026.40 1026.64 1026.83 1026.98 1027.07 1027.10
1017.44 1017.85 1018.24 1018.62 1019.00 1019.41 1019.85 1020.32 1020.82 1021.33 1021.82 1022.27 1022.67 1023.00 1023.27 1023.48 1023.64 1023.80 1023.95 1024.12 1024.32 1024.55 1024.78 1025.01 1025.21 1025.37 1025.47 1025.53 1025.54 1025.53 1025.53 1025.55 1025.61 1025.72 1025.89 1026.09 1026.32 1026.55 1026.76 1026.93 1027.06 1027.13 1027.15
1017.45 1017.83 1018.19 1018.56 1018.93 1019.33 1019.77 1020.25 1020.75 1021.26 1021.77 1022.24 1022.65 1023.01 1023.30 1023.54 1023.74 1023.92 1024.09 1024.27 1024.48 1024.69 1024.91 1025.13 1025.31 1025.47 1025.57 1025.63 1025.66 1025.67 1025.68 1025.71 1025.78 1025.89 1026.05 1026.23 1026.44 1026.64 1026.82 1026.97 1027.08 1027.14 1027.16
1017.35 1017.70 1018.04 1018.38 1018.74 1019.13 1019.56 1020.02 1020.52 1021.02 1021.52 1022.00 1022.43 1022.81 1023.15 1023.43 1023.68 1023.90 1024.12 1024.34 1024.56 1024.78 1025.01 1025.21 1025.39 1025.53 1025.64 1025.70 1025.73 1025.75 1025.78 1025.82 1025.89 1025.99 1026.13 1026.29 1026.47 1026.64 1026.80 1026.93 1027.03 1027.09 1027.13
1017.14 1017.45 1017.76 1018.09 1018.44 1018.81 1019.22 1019.67 1020.14 1020.63 1021.11 1021.59 1022.03 1022.44 1022.81 1023.15 1023.45 1023.74 1024.01 1024.28 1024.54 1024.79 1025.02 1025.23 1025.41 1025.55 1025.65 1025.71 1025.75 1025.78 1025.81 1025.85 1025.92 1026.01 1026.14 1026.28 1026.43 1026.57 1026.71 1026.83 1026.92 1026.99 1027.03
1016.81 1017.10 1017.39 1017.71 1018.04 1018.41 1018.80 1019.22 1019.67 1020.13 1020.59 1021.06 1021.50 1021.93 1022.34 1022.72 1023.08 1023.42 1023.75 1024.07 1024.37 1024.65 1024.90 1025.12 1025.31 1025.45 1025.56 1025.63 1025.68 1025.72 1025.76 1025.81 1025.88 1025.97 1026.08 1026.20 1026.32 1026.44 1026.56 1026.66 1026.75 1026.83 1026.89
1016.42 1016.68 1016.97 1017.27 1017.60 1017.95 1018.33 1018.73 1019.14 1019.57 1020.01 1020.46 1020.89 1021.33 1021.75 1022.17 1022.57 1022.96 1023.33 1023.69 1024.02 1024.33 1024.60 1024.84 1025.04 1025.20 1025.32 1025.42 1025.49 1025.56 1025.63 1025.70 1025.78 1025.87 1025.97 1026.07 1026.18 1026.28 1026.38 1026.47 1026.55 1026.64 1026.72
1016.00 1016.25 1016.53 1016.82 1017.15 1017.48 1017.84 1018.21 1018.59 1018.98 1019.39 1019.80 1020.23 1020.65 1021.08 1021.51 1021.93 1022.35 1022.75 1023.13 1023.48 1023.81 1024.10 1024.35 1024.57 1024.75 1024.91 1025.04 1025.17 1025.28 1025.39 1025.50 1025.61 1025.72 1025.83 1025.93 1026.02 1026.11 1026.19 1026.27 1026.35 1026.43 1026.53
1015.61 1015.83 1016.09 1016.38 1016.68 1016.99 1017.31 1017.65 1017.99 1018.35 1018.72 1019.10 1019.50 1019.91 1020.33 1020.76 1021.18 1021.60 1022.01 1022.40 1022.76 1023.09 1023.39 1023.66 1023.91 1024.13 1024.33 1024.53 1024.71 1024.89 1025.06 1025.23 1025.39 1025.54 1025.67 1025.78 1025.88 1025.96 1026.03 1026.09 1026.16 1026.24 1026.34
1015.26 1015.45 1015.67 1015.91 1016.17 1016.45 1016.72 1017.01 1017.31 1017.63 1017.96 1018.32 1018.69 1019.09 1019.50 1019.92 1020.34 1020.76 1021.16 1021.54 1021.90 1022.24 1022.55 1022.84 1023.12 1023.38 1023.64 1023.91 1024.17 1024.43 1024.68 1024.93 1025.15 1025.35 1025.52 1025.65 1025.76 1025.84 1025.90 1025.95 1026.01 1026.08 1026.17
1014.95 1015.08 1015.23 1015.40 1015.59 1015.80 1016.02 1016.25 1016.50 1016.78 1017.08 1017.42 1017.78 1018.17 1018.58 1019.00 1019.43 1019.84 1020.25 1020.63 1020.99 1021.33 1021.66 1021.97 1022.28 1022.60 1022.92 1023.26 1023.60 1023.95 1024.29 1024.62 1024.91 1025.17 1025.39 1025.55 1025.67 1025.75 1025.81 1025.86 1025.90 1025.95 1026.02
1014.66 1014.69 1014.74 1014.81 1014.90 1015.01 1015.15 1015.31 1015.52 1015.76 1016.05 1016.38 1016.76 1017.17 1017.60 1018.05 1018.49 1018.93 1019.35 1019.74 1020.12 1020.47 1020.81 1021.16 1021.50 1021.87 1022.25 1022.66 1023.08 1023.51 1023.93 1024.33 1024.69 1025.01 1025.26 1025.46 1025.60 1025.69 1025.75 1025.78 1025.81 1025.84 1025.89
1014.34 1014.25 1014.16 1014.10 1014.07 1014.07 1014.11 1014.21 1014.37 1014.59 1014.88 1015.24 1015.65 1016.11 1016.59 1017.09 1017.59 1018.08 1018.54 1018.97 1019.37 1019.76 1020.13 1020.50 1020.88 1021.28 1021.71 1022.17 1022.64 1023.13 1023.61 1024.06 1024.48 1024.84 1025.14 1025.36 1025.52 1025.62 1025.67 1025.70 1025.71 1025.72 1025.74
1013.98 1013.74 1013.52 1013.31 1013.14 1013.02 1012.98 1013.01 1013.13 1013.35 1013.66 1014.06 1014.54 1015.07 1015.64 1016.22 1016.80 1017.36 1017.89 1018.37 1018.82 1019.24 1019.65 1020.04 1020.45 1020.87 1021.33 1021.81 1022.31 1022.83 1023.33 1023.82 1024.26 1024.64 1024.96 1025.20 1025.37 1025.48 1025.54 1025.56 1025.57 1025.56 1025.55
1013.58 1013.21 1012.84 1012.49 1012.20 1011.97 1011.84 1011.82 1011.92 1012.15 1012.50 1012.96 1013.51 1014.14 1014.81 1015.49 1016.17 1016.82 1017.43 1017.98 1018.48 1018.94 1019.37 1019.79 1020.21 1020.64 1021.09 1021.56 1022.06 1022.57 1023.07 1023.55 1023.99 1024.38 1024.70 1024.95 1025.13 1025.25 1025.31 1025.33 1025.33 1025.31 1025.29
1013.17 1012.69 1012.21 1011.76 1011.36 1011.05 1010.86 1010.81 1010.90 1011.14 1011.53 1012.06 1012.69 1013.41 1014.18 1014.97 1015.74 1016.47 1017.15 1017.77 1018.32 1018.82 1019.27 1019.69 1020.10 1020.51 1020.93 1021.38 1021.84 1022.31 1022.78 1023.23 1023.65 1024.02 1024.33 1024.58 1024.76 1024.88 1024.95 1024.98 1024.98 1024.96 1024.92
Thickness
5757 5753 5750 5747 5745 5742 5740 5738 5735 5733 5731 5729 5728 5727 5726 5725 5724 5723 5722 5721 5719 5717 5715 5714 5712 5711 5709 5708 5706 5704 5702 5699 5694 5692 5691 5690 5688 5687 5686 5685 5684 5682 5681
5757 5753 5749 5746 5743 5740 5738 5736 5734 5731 5729 5727 5725 5724 5723 5721 5720 5719 5718 5717 5715 5713 5711 5710 5708 5707 5705 5703 5701 5699 5697 5694 5691 5686 5684 5683 5681 5679 5678 5677 5675 5673 5671
5757 5752 5748 5744 5741 5738 5735 5733 5730 5728 5726 5724 5723 5721 5719 5718 5716 5715 5714 5712 5710 5708 5706 5704 5703 5701 5698 5697 5695 5693 5691 5689 5685 5681 5678 5675 5672 5670 5669 5667 5665 5663 5661
5756 5750 5746 5742 5739 5735 5732 5729 5726 5724 5722 5720 5718 5716 5715 5713 5712 5710 5709 5707 5705 5703 5701 5698 5696 5694 5692 5690 5688 5686 5684 5680 5677 5674 5670 5667 5663 5661 5659 5656 5654 5652 5649
5754 5748 5744 5740 5736 5733 5729 5726 5723 5720 5717 5715 5713 5711 5709 5708 5706 5705 5703 5701 5698 5696 5693 5691 5689 5687 5685 5683 5680 5677 5675 5671 5668 5664 5661 5657 5654 5650 5648 5646 5644 5641 5638
5751 5745 5741 5737 5733 5729 5725 5722 5718 5715 5712 5710 5707 5705 5702 5701 5699 5698 5696 5693 5691 5688 5685 5682 5680 5678 5675 5673 5671 5668 5666 5662 5659 5655 5651 5648 5644 5642 5639 5638 5634 5632 5628
5746 5742 5738 5734 5729 5725 5722 5718 5713 5710 5708 5705 5702 5698 5695 5692 5691 5690 5688 5686 5683 5679 5676 5674 5671 5668 5665 5663 5660 5658 5655 5652 5650 5647 5643 5639 5636 5634 5631 5629 5625 5622 5617
5742 5738 5734 5730 5725 5720 5716 5712 5707 5703 5701 5697 5694 5691 5688 5685 5683 5682 5680 5678 5674 5670 5667 5664 5661 5658 5656 5654 5652 5649 5645 5642 5640 5637 5634 5631 5629 5626 5623 5620 5616 5611 5606
5738 5733 5729 5726 5721 5716 5711 5706 5701 5697 5693 5689 5686 5683 5680 5677 5676 5674 5672 5669 5665 5661 5658 5655 5652 5649 5647 5645 5643 5639 5636 5632 5630 5627 5625 5621 5619 5616 5614 5610 5606 5603 5597
5732 5728 5724 5720 5715 5710 5705 5700 5695 5691 5686 5682 5678 5674 5672 5669 5667 5666 5664 5661 5657 5652 5649 5645 5643 5640 5637 5635 5632 5630 5626 5622 5619 5617 5614 5611 5608 5605 5603 5599 5596 5592 5587
5727 5721 5717 5713 5709 5704 5698 5693 5688 5684 5679 5674 5670 5666 5663 5661 5659 5657 5655 5652 5648 5644 5640 5636 5632 5630 5628 5625 5622 5619 5615 5612 5609 5607 5604 5601 5598 5595 5591 5587 5584 5581 5577
5722 5715 5709 5705 5702 5697 5691 5685 5680 5676 5671 5666 5661 5657 5654 5651 5650 5647 5645 5643 5639 5635 5630 5627 5623 5621 5618 5615 5612 5609 5606 5603 5600 5597 5593 5589 5586 5582 5578 5575 5572 5568 5565
5713 5707 5702 5696 5692 5687 5682 5677 5672 5668 5663 5658 5654 5650 5646 5642 5640 5638 5636 5633 5630 5626 5621 5618 5615 5612 5609 5605 5602 5599 5596 5593 5590 5586 5582 5577 5573 5569 5567 5564 5560 5557 5553
5704 5698 5693 5688 5682 5676 5672 5668 5665 5660 5656 5652 5647 5642 5638 5635 5632 5629 5626 5623 5621 5617 5612 5609 5606 5602 5599 5595 5592 5588 5585 5582 5578 5574 5570 5566 5563 5560 5556 5552 5549 5546 5543
5696 5690 5684 5679 5674 5667 5662 5658 5655 5651 5648 5644 5639 5635 5631 5627 5623 5621 5618 5615 5611 5608 5604 5600 5596 5592 5588 5584 5581 5577 5574 5572 5568 5564 5560 5556 5553 5549 5545 5541 5537 5535 5532
5688 5682 5676 5670 5665 5659 5654 5647 5643 5641 5638 5635 5631 5627 5623 5619 5616 5613 5610 5606 5602 5599 5595 5590 5585 5581 5577 5573 5570 5567 5564 5560 5557 5553 5550 5546 5542 5539 5535 5531 5527 5524 5521
5681 5675 5669 5663 5658 5652 5648 5643 5636 5630 5628 5625 5622 5619 5615 5611 5607 5604 5601 5597 5593 5590 5586 5580 5575 5571 5567 5563 5560 5557 5554 5549 5546 5543 5540 5536 5533 5529 5525 5522 5518 5515 5512
5672 5667 5661 5656 5651 5646 5640 5636 5631 5626 5621 5615 5611 5609 5606 5603 5599 5596 5592 5589 5583 5579 5576 5571 5566 5562 5558 5555 5552 5548 5544 5541 5537 5534 5530 5527 5523 5520 5516 5513 5509 5506 5504
5663 5658 5653 5647 5642 5637 5631 5627 5623 5618 5613 5608 5603 5600 5597 5593 5590 5587 5584 5580 5576 5571 5567 5562 5558 5555 5551 5547 5543 5539 5536 5532 5528 5525 5521 5518 5515 5511 5508 5505 5502 5497 5495
5655 5650 5645 5639 5633 5628 5623 5619 5614 5609 5605 5601 5597 5593 5589 5586 5582 5578 5575 5572 5568 5563 5559 5555 5551 5548 5544 5540 5536 5532 5528 5525 5521 5517 5514 5510 5507 5504 5501 5497 5494 5492 5488
5646 5641 5637 5631 5626 5621 5616 5611 5606 5601 5597 5593 5589 5586 5582 5579 5576 5572 5568 5564 5560 5556 5552 5548 5545 5541 5537 5533 5530 5526 5522 5518 5514 5511 5507 5503 5500 5497 5493 5490 5488 5485 5482
5637 5632 5628 5623 5618 5613 5608 5604 5599 5594 5590 5586 5582 5578 5574 5571 5568 5564 5561 5557 5553 5550 5546 5542 5539 5535 5531 5527 5524 5520 5516 5512 5508 5504 5501 5497 5494 5490 5487 5485 5482 5479 5476
5627 5623 5618 5614 5610 5605 5601 5596 5592 5588 5584 5580 5576 5573 5568 5565 5562 5558 5555 5551 5548 5544 5540 5536 5533 5529 5525 5521 5517 5513 5510 5506 5503 5499 5495 5491 5488 5485 5482 5479 5476 5473 5471
5619 5615 5610 5606 5602 5598 5594 5590 5586 5582 5578 5575 5571 5567 5563 5559 5556 5552 5549 5545 5542 5538 5534 5531 5527 5523 5520 5516 5512 5508 5505 5501 5497 5493 5490 5486 5483 5479 5476 5473 5471 5468 5466
5610 5607 5603 5599 5596 5592 5588 5584 5580 5577 5573 5569 5566 5562 5558 5554 5550 5547 5543 5539 5536 5532 5528 5525 5521 5518 5514 5511 5507 5504 5500 5497 5493 5489 5485 5481 5477 5474 5471 5468 5466 5463 5461
5602 5599 5596 5593 5589 5586 5582 5579 5575 5572 5568 5564 5560 5556 5552 5548 5545 5541 5537 5534 5530 5526 5523 5519 5516 5512 5509 5506 5502 5499 5495 5492 5488 5484 5480 5476 5472 5469 5466 5463 5461 5458 5456